PBO Station Position Time Series. Reference Frame : NAM14
Format Version,1.1.0
4-character ID,P361
Station name,HLFSawtellID2007
Begin Date, 2007-07-31
End Date, 2019-10-07
Release Date, 2019-10-08
Reference position, 44.5603477262 North Latitude, -111.4396897522 East Longitude, 2930.92659 meters elevation,
Date, North (mm), East (mm), Vertical (mm), North Std. Deviation (mm), East Std. Deviation (mm),              Vertical Std. Deviation (mm), Quality,
2007-07-31,0.00, 0.00, 0.00, 2.18, 1.64, 7.21, repro,
2007-08-01,-1.30, -1.12, -0.29, 2.17, 1.61, 7.18, repro,
2007-08-02,1.06, -1.65, -2.14, 2.25, 1.67, 7.32, repro,
2007-08-03,0.20, 0.55, 0.48, 2.13, 1.56, 6.95, repro,
2007-08-04,0.51, 0.77, 4.63, 2.13, 1.57, 6.98, repro,
2007-08-05,0.93, 0.29, 4.54, 2.13, 1.58, 7.01, repro,
2007-08-06,0.55, 0.75, 2.81, 2.18, 1.62, 7.20, repro,
2007-08-07,0.45, 0.90, 5.96, 2.19, 1.60, 7.14, repro,
2007-08-08,-0.93, -0.08, 0.94, 2.14, 1.55, 6.90, repro,
2007-08-09,-0.18, 0.50, 2.08, 2.12, 1.56, 6.90, repro,
2007-08-10,-0.17, 0.65, -0.16, 2.18, 1.61, 7.11, repro,
2007-08-11,0.03, 1.10, -0.65, 2.13, 1.59, 7.02, repro,
2007-08-12,1.42, 1.20, -5.07, 2.12, 1.57, 6.94, repro,
2007-08-13,0.68, -0.08, 0.29, 2.14, 1.57, 6.97, repro,
2007-08-14,-0.82, -0.02, 0.73, 2.30, 1.66, 7.45, repro,
2007-08-15,-1.52, -0.14, 4.24, 2.29, 1.66, 7.45, repro,
2007-08-16,0.69, 0.82, -3.58, 2.26, 1.63, 7.30, repro,
2007-08-17,1.37, -0.44, 0.65, 2.25, 1.65, 7.38, repro,
2007-08-18,0.16, 1.07, -2.38, 2.30, 1.68, 7.60, repro,
2007-08-19,1.02, 0.75, 5.40, 2.40, 1.80, 7.94, repro,
2007-08-20,-1.39, -1.38, -0.49, 2.23, 1.61, 7.19, repro,
2007-08-21,-1.63, 0.72, 3.23, 2.24, 1.62, 7.24, repro,
2007-08-22,0.20, -0.39, -0.64, 2.22, 1.62, 7.08, repro,
2007-08-23,-0.53, 0.20, 5.28, 2.17, 1.59, 6.96, repro,
2007-08-24,0.44, -0.47, 5.89, 2.33, 1.67, 7.33, repro,
2007-08-25,-0.23, -0.43, -1.50, 2.25, 1.66, 7.28, repro,
2007-08-26,-0.46, 1.22, 3.96, 2.30, 1.69, 7.44, repro,
2007-08-27,-0.85, -0.95, -2.63, 2.28, 1.69, 7.45, repro,
2007-08-28,-1.07, 1.01, -1.76, 2.21, 1.65, 7.12, repro,
2007-08-29,-0.48, 0.80, -4.46, 2.25, 1.66, 7.24, repro,
2007-08-30,0.17, 0.64, -6.51, 2.24, 1.66, 7.26, repro,
2007-08-31,-0.86, 0.77, -2.77, 2.30, 1.71, 7.46, repro,
2007-09-01,-0.10, -1.10, 2.06, 2.24, 1.66, 7.22, repro,
2007-09-02,0.44, 0.80, -4.70, 2.30, 1.72, 7.37, repro,
2007-09-03,-0.51, 0.57, 2.58, 2.26, 1.66, 7.25, repro,
2007-09-04,-1.54, 0.31, 0.02, 2.31, 1.68, 7.39, repro,
2007-09-05,-1.61, 0.45, 1.34, 2.31, 1.71, 7.51, repro,
2007-09-06,-1.49, 0.15, -1.92, 2.24, 1.65, 7.24, repro,
2007-09-07,-0.36, 0.16, -5.71, 2.24, 1.66, 7.26, repro,
2007-09-08,0.49, 1.20, -0.82, 2.36, 1.75, 7.59, repro,
2007-09-09,-0.23, 0.39, -2.30, 2.31, 1.74, 7.53, repro,
2007-09-10,0.52, 0.02, -4.50, 2.26, 1.66, 7.26, repro,
2007-09-11,-0.89, 1.51, -3.26, 2.25, 1.65, 7.26, repro,
2007-09-12,-0.34, 0.44, -0.71, 2.28, 1.66, 7.29, repro,
2007-09-13,-0.66, -0.27, 2.25, 2.24, 1.65, 7.20, repro,
2007-09-14,1.83, -0.60, 2.47, 2.26, 1.65, 7.24, repro,
2007-09-15,0.13, -0.20, 2.07, 2.33, 1.68, 7.45, repro,
2007-09-16,0.34, 0.29, -2.59, 2.26, 1.66, 7.25, repro,
2007-09-17,-0.08, -0.38, 5.12, 2.29, 1.71, 7.51, repro,
2007-09-18,-2.05, 0.41, 1.00, 2.20, 1.65, 7.21, repro,
2007-09-19,0.47, 0.48, 1.44, 2.15, 1.57, 6.93, repro,
2007-09-20,-1.32, -0.04, 9.87, 2.18, 1.58, 7.01, repro,
2007-09-21,0.91, 0.63, 4.94, 2.22, 1.62, 7.21, repro,
2007-09-22,1.22, 1.84, -5.57, 2.25, 1.62, 7.24, repro,
2007-09-23,0.93, 1.15, 0.32, 2.25, 1.63, 7.25, repro,
2007-09-24,-0.52, 0.38, -0.67, 2.33, 1.69, 7.50, repro,
2007-09-25,-1.29, 0.48, -3.82, 2.22, 1.62, 7.17, repro,
2007-09-26,-0.10, 0.01, -0.01, 2.28, 1.59, 7.11, repro,
2007-09-27,-0.35, 0.19, -6.92, 2.21, 1.62, 7.19, repro,
2007-09-28,1.29, 1.03, -0.13, 2.23, 1.65, 7.29, repro,
2007-09-29,-0.47, 0.81, 4.83, 2.19, 1.62, 7.17, repro,
2007-09-30,0.00, -1.07, 5.37, 2.26, 1.67, 7.33, repro,
2007-10-01,2.15, 0.57, -3.24, 2.24, 1.66, 7.24, repro,
2007-10-02,-0.87, -1.01, 1.97, 2.28, 1.71, 7.53, repro,
2007-10-03,-0.97, 0.75, 4.97, 2.22, 1.70, 7.40, repro,
2007-10-04,-2.01, 1.04, 8.35, 2.22, 1.66, 7.29, repro,
2007-10-05,0.73, 0.18, 6.41, 2.26, 1.67, 7.36, repro,
2007-10-06,-0.01, -0.49, 6.05, 2.25, 1.66, 7.29, repro,
2007-10-07,0.76, -0.42, -1.15, 2.28, 1.65, 7.30, repro,
2007-10-08,-0.63, 0.07, -6.11, 2.50, 1.79, 7.97, repro,
2007-10-09,0.48, 0.66, -3.42, 2.47, 1.84, 8.01, repro,
2007-10-10,0.69, 0.08, -1.00, 2.43, 1.73, 7.73, repro,
2007-10-11,0.80, 1.08, -6.46, 2.26, 1.69, 7.42, repro,
2007-10-12,-0.61, -0.12, 2.17, 2.23, 1.67, 7.19, repro,
2007-10-13,-0.05, 0.06, 0.94, 2.17, 1.61, 7.09, repro,
2007-10-14,0.42, 0.00, -0.63, 2.20, 1.63, 7.18, repro,
2007-10-15,-0.55, -0.07, -1.11, 2.27, 1.68, 7.37, repro,
2007-10-16,0.30, -0.59, -0.09, 2.20, 1.63, 7.18, repro,
2007-10-17,-2.20, 0.05, 6.07, 2.25, 1.67, 7.29, repro,
2007-10-18,-0.26, 1.58, 4.23, 2.25, 1.71, 7.42, repro,
2007-10-19,-1.53, 2.94, 1.53, 2.18, 1.62, 7.14, repro,
2007-10-20,-0.58, 0.23, 5.44, 2.21, 1.66, 7.28, repro,
2007-10-21,-1.00, 0.68, -3.59, 2.20, 1.62, 7.15, repro,
2007-10-22,-1.14, -0.56, -9.12, 2.17, 1.63, 7.14, repro,
2007-10-23,-0.27, 0.12, -11.13, 2.25, 1.67, 7.31, repro,
2007-10-24,0.15, -0.39, -8.51, 2.28, 1.71, 7.53, repro,
2007-10-25,-1.70, 1.16, -6.54, 2.17, 1.61, 7.09, repro,
2007-10-26,-0.38, 0.65, -8.83, 2.22, 1.64, 7.25, repro,
2007-10-27,-0.83, 0.19, -7.12, 2.20, 1.62, 7.18, repro,
2007-10-28,-1.24, 0.77, -9.44, 2.18, 1.61, 7.10, repro,
2007-10-29,-2.14, 0.40, -11.17, 2.18, 1.59, 7.05, repro,
2007-10-30,-0.90, 1.12, -8.25, 2.18, 1.60, 7.06, repro,
2007-10-31,-1.26, 0.57, -8.66, 2.24, 1.72, 7.44, repro,
2007-11-01,-0.73, -0.56, -7.23, 2.16, 1.58, 6.99, repro,
2007-11-02,-1.38, 0.10, -1.70, 2.16, 1.57, 7.02, repro,
2007-11-03,0.21, 0.58, -11.98, 2.17, 1.58, 7.03, repro,
2007-11-04,-1.47, 0.19, -8.91, 2.15, 1.57, 6.97, repro,
2007-11-05,-0.37, -0.20, -11.07, 2.16, 1.57, 6.98, repro,
2007-11-06,-0.26, 0.37, -12.18, 2.20, 1.67, 7.43, repro,
2007-11-07,-0.74, 0.60, -9.24, 2.16, 1.59, 7.02, repro,
2007-11-08,-1.42, -0.35, -4.91, 2.21, 1.62, 7.15, repro,
2007-11-09,-0.74, 0.29, -10.06, 2.22, 1.62, 7.18, repro,
2007-11-10,-1.04, -0.31, -4.64, 2.15, 1.58, 6.95, repro,
2007-11-11,-0.34, 0.33, -2.38, 2.13, 1.57, 6.91, repro,
2007-11-12,-1.07, -0.13, -1.70, 2.14, 1.58, 6.94, repro,
2007-11-13,-2.25, 1.03, -1.21, 2.14, 1.56, 6.89, repro,
2007-11-14,-0.05, 0.77, -8.24, 2.20, 1.63, 7.20, repro,
2007-11-15,-0.04, 0.82, -8.11, 2.17, 1.59, 7.03, repro,
2007-11-16,-1.61, -0.75, -4.41, 2.16, 1.59, 7.00, repro,
2007-11-17,-3.04, 0.69, 0.27, 2.18, 1.64, 7.16, repro,
2007-11-18,-1.89, 4.91, -0.74, 2.18, 1.62, 7.23, repro,
2007-11-19,-0.13, 3.99, -1.78, 2.20, 1.61, 7.13, repro,
2007-11-20,-1.21, 2.07, -0.41, 2.27, 1.72, 7.55, repro,
2007-11-21,-0.70, 2.59, -2.62, 2.29, 1.73, 7.55, repro,
2007-11-22,-0.63, 1.66, -8.53, 2.26, 1.69, 7.33, repro,
2007-11-23,-1.76, 0.16, -2.50, 2.26, 1.72, 7.48, repro,
2007-11-24,-0.56, 0.08, -1.78, 2.22, 1.67, 7.27, repro,
2007-11-25,-1.58, -0.08, -0.76, 2.24, 1.69, 7.37, repro,
2007-11-26,-1.31, 0.32, -7.87, 2.33, 1.68, 7.46, repro,
2007-11-27,-2.01, 0.06, -5.75, 2.22, 1.69, 7.25, repro,
2007-11-28,-1.62, 0.65, -8.81, 2.20, 1.65, 7.10, repro,
2007-11-29,-0.54, -0.46, -6.85, 2.19, 1.63, 7.13, repro,
2007-11-30,-0.13, 0.00, -5.20, 2.26, 1.71, 7.41, repro,
2007-12-01,-0.13, -0.21, -2.75, 2.34, 1.74, 7.76, repro,
2007-12-02,-2.20, -0.73, -0.84, 2.35, 1.73, 7.82, repro,
2007-12-03,-2.81, 0.05, -11.26, 2.52, 1.86, 8.21, repro,
2007-12-04,-4.67, 5.37, -0.01, 2.47, 1.91, 8.28, repro,
2007-12-05,-7.17, 8.42, 11.55, 2.44, 1.89, 8.30, repro,
2007-12-06,-6.34, 7.17, 9.12, 2.53, 1.89, 8.35, repro,
2007-12-07,-5.14, 7.14, 7.78, 2.44, 1.84, 8.05, repro,
2007-12-08,-5.52, 8.11, 6.12, 2.24, 1.68, 7.34, repro,
2007-12-09,-4.00, 6.17, 5.82, 2.66, 2.10, 8.88, repro,
2007-12-10,-3.17, 4.86, 1.56, 2.31, 1.74, 7.55, repro,
2007-12-11,-3.27, 4.47, 2.26, 2.23, 1.69, 7.35, repro,
2007-12-12,-0.62, 0.41, -5.91, 2.29, 1.71, 7.49, repro,
2007-12-13,-1.09, 2.03, -8.73, 2.31, 1.70, 7.42, repro,
2007-12-14,-0.98, 1.12, -9.82, 2.24, 1.66, 7.26, repro,
2007-12-15,-0.51, 1.77, -6.67, 2.25, 1.66, 7.24, repro,
2007-12-16,-0.69, 1.20, -12.90, 2.23, 1.62, 7.14, repro,
2007-12-17,1.11, 3.03, -5.87, 2.49, 1.90, 8.18, repro,
2007-12-18,-0.69, 1.45, -4.69, 2.25, 1.67, 7.41, repro,
2007-12-19,-5.37, 4.67, -5.79, 2.24, 1.66, 7.30, repro,
2007-12-20,3.14, 9.45, -9.88, 2.31, 1.70, 7.47, repro,
2007-12-21,2.27, 13.58, -6.68, 2.27, 1.69, 7.40, repro,
2007-12-22,1.88, 14.22, -14.97, 2.27, 1.66, 7.34, repro,
2007-12-23,2.80, 11.75, -13.48, 2.22, 1.67, 7.28, repro,
2007-12-24,2.48, 11.53, -8.64, 2.23, 1.66, 7.28, repro,
2007-12-25,2.76, 11.94, -8.67, 2.23, 1.66, 7.34, repro,
2007-12-26,3.05, 13.78, -9.07, 2.39, 1.74, 7.76, repro,
2007-12-27,4.16, 12.84, -5.09, 2.41, 1.80, 7.98, repro,
2007-12-28,4.74, 11.27, -14.06, 2.30, 1.68, 7.43, repro,
2007-12-29,3.03, 9.24, -14.47, 2.25, 1.68, 7.38, repro,
2007-12-30,4.56, 12.12, -9.89, 2.28, 1.67, 7.42, repro,
2007-12-31,3.58, 13.39, -9.58, 2.23, 1.61, 7.16, repro,
2008-01-01,4.06, 14.57, -24.41, 2.26, 1.63, 7.21, repro,
2008-01-02,0.73, 5.78, -16.90, 2.28, 1.65, 7.38, repro,
2008-01-03,-2.95, 2.36, -10.08, 2.16, 1.55, 6.88, repro,
2008-01-04,0.38, 1.92, -10.73, 2.20, 1.60, 7.06, repro,
2008-01-05,0.55, 0.32, 0.37, 2.16, 1.57, 6.95, repro,
2008-01-06,-0.37, -0.89, 6.36, 2.18, 1.57, 6.95, repro,
2008-01-07,0.14, -0.59, 2.26, 2.25, 1.68, 7.34, repro,
2008-01-08,-1.91, -0.12, -5.10, 2.29, 1.67, 7.36, repro,
2008-01-09,-0.80, 1.05, -3.71, 2.21, 1.57, 7.02, repro,
2008-01-10,-1.56, 2.51, -4.87, 2.20, 1.61, 7.12, repro,
2008-01-11,-1.97, 2.56, -2.12, 2.21, 1.61, 7.14, repro,
2008-01-12,-0.97, 3.51, -5.66, 2.26, 1.66, 7.28, repro,
2008-01-13,-0.54, 3.76, -4.81, 2.21, 1.63, 7.23, repro,
2008-01-14,-0.56, 3.54, -8.67, 2.23, 1.66, 7.32, repro,
2008-01-15,-1.32, -0.16, -3.60, 2.16, 1.62, 7.06, repro,
2008-01-16,-1.23, 0.43, -12.74, 2.33, 1.74, 7.69, repro,
2008-01-17,-1.02, -0.25, -10.47, 2.24, 1.61, 7.19, repro,
2008-01-18,-1.29, -0.06, -4.33, 2.25, 1.70, 7.46, repro,
2008-01-19,-0.93, 0.80, -12.10, 2.17, 1.62, 7.10, repro,
2008-01-20,0.28, 0.26, -12.86, 2.15, 1.57, 6.94, repro,
2008-01-21,0.54, 0.66, -9.75, 2.24, 1.70, 7.41, repro,
2008-01-22,-0.48, -0.63, -15.12, 2.29, 1.72, 7.57, repro,
2008-01-23,-0.28, -0.34, -10.30, 2.17, 1.60, 7.09, repro,
2008-01-24,-1.00, 0.50, -7.40, 2.17, 1.62, 7.17, repro,
2008-01-25,-0.68, 0.30, -8.32, 2.20, 1.59, 7.15, repro,
2008-01-26,-2.75, 0.18, -10.91, 2.20, 1.60, 7.14, repro,
2008-01-27,-1.73, 3.76, -0.24, 2.29, 1.66, 7.45, repro,
2008-01-28,-1.47, 3.00, 15.48, 2.24, 1.64, 7.35, repro,
2008-01-29,-2.64, 2.05, 7.43, 2.34, 1.75, 7.64, repro,
2008-01-30,-1.79, 3.85, 4.58, 2.42, 1.83, 8.03, repro,
2008-01-31,-0.83, 4.87, -7.55, 2.23, 1.68, 7.46, repro,
2008-02-01,-1.72, 5.16, -7.56, 2.17, 1.59, 7.06, repro,
2008-02-02,-1.53, 4.38, -9.21, 2.27, 1.67, 7.48, repro,
2008-02-03,-1.70, 4.77, -2.03, 2.28, 1.67, 7.53, repro,
2008-02-04,-1.79, 5.21, -0.03, 2.57, 2.01, 8.86, repro,
2008-02-05,-1.62, 4.38, -2.35, 2.23, 1.64, 7.24, repro,
2008-02-06,-1.23, 2.72, -1.30, 2.20, 1.65, 7.17, repro,
2008-02-07,-3.85, 3.88, 0.66, 2.22, 1.66, 7.45, repro,
2008-02-08,-2.91, 2.21, -4.16, 2.17, 1.59, 7.15, repro,
2008-02-09,-1.94, 2.43, -4.04, 2.19, 1.64, 7.26, repro,
2008-02-10,-3.89, 4.04, -14.28, 2.18, 1.58, 7.06, repro,
2008-02-11,-0.76, 3.09, -16.62, 2.26, 1.71, 7.56, repro,
2008-02-12,-0.79, 0.97, -21.00, 2.41, 1.90, 8.14, repro,
2008-02-13,-3.08, 6.55, 2.21, 2.16, 1.59, 7.06, repro,
2008-02-14,-3.11, 8.33, -0.38, 2.26, 1.72, 7.57, repro,
2008-02-15,-4.20, 7.45, 0.59, 2.36, 1.78, 7.77, repro,
2008-02-16,-2.34, 0.10, -9.42, 2.28, 1.72, 7.56, repro,
2008-02-17,-1.59, -0.02, -13.42, 2.31, 1.77, 7.80, repro,
2008-02-18,-2.03, -0.65, -14.04, 2.34, 1.85, 7.87, repro,
2008-02-19,-2.31, -0.03, -14.71, 2.22, 1.69, 7.39, repro,
2008-02-20,-1.38, 0.15, -12.98, 2.22, 1.62, 7.21, repro,
2008-02-21,-2.26, -0.16, -7.22, 2.31, 1.68, 7.50, repro,
2008-02-22,-2.06, 0.40, -8.00, 2.23, 1.66, 7.32, repro,
2008-02-23,-2.24, 0.38, -7.86, 2.26, 1.66, 7.28, repro,
2008-02-24,-0.73, 0.53, -11.98, 2.27, 1.70, 7.50, repro,
2008-02-25,-1.12, 0.02, -15.44, 2.29, 1.73, 7.60, repro,
2008-02-26,-2.46, 0.75, -20.28, 2.26, 1.67, 7.38, repro,
2008-02-27,-0.73, -0.62, -22.77, 2.30, 1.73, 7.65, repro,
2008-02-28,-2.57, -1.11, -13.31, 2.23, 1.67, 7.36, repro,
2008-02-29,-3.69, 0.27, -9.99, 2.16, 1.57, 6.96, repro,
2008-03-01,-1.65, -0.24, -12.82, 2.17, 1.57, 6.99, repro,
2008-03-02,-3.27, 0.91, -12.42, 2.23, 1.64, 7.25, repro,
2008-03-03,-2.07, -0.97, -17.57, 2.18, 1.60, 7.09, repro,
2008-03-04,-1.73, -0.56, -13.08, 2.27, 1.71, 7.57, repro,
2008-03-05,-1.43, -0.03, -17.08, 2.27, 1.73, 7.45, repro,
2008-03-06,-1.85, -0.73, -21.12, 2.21, 1.60, 7.09, repro,
2008-03-07,-2.64, -0.52, -21.40, 2.15, 1.56, 6.94, repro,
2008-03-08,-2.82, -0.38, -12.15, 2.19, 1.61, 7.13, repro,
2008-03-09,-1.67, -0.69, -19.43, 2.22, 1.68, 7.41, repro,
2008-03-10,-3.25, 0.81, -17.04, 2.26, 1.68, 7.34, repro,
2008-03-11,-1.96, -0.64, -21.12, 2.22, 1.65, 7.31, repro,
2008-03-12,-1.59, -1.69, -13.85, 2.24, 1.65, 7.33, repro,
2008-03-13,-2.19, -1.34, -9.67, 2.24, 1.64, 7.30, repro,
2008-03-14,-2.06, -0.45, -8.89, 2.29, 1.71, 7.63, repro,
2008-03-15,-1.23, 0.01, -16.91, 2.29, 1.71, 7.63, repro,
2008-03-16,-1.57, -0.88, -10.68, 2.24, 1.66, 7.41, repro,
2008-03-17,-2.29, -1.29, -11.73, 2.27, 1.73, 7.61, repro,
2008-03-18,-2.09, -1.44, -16.81, 2.20, 1.65, 7.29, repro,
2008-03-19,-4.39, 7.70, 0.98, 2.26, 1.71, 7.44, repro,
2008-03-20,-5.74, 7.40, -3.46, 2.23, 1.67, 7.32, repro,
2008-03-21,-4.99, 5.03, -3.29, 2.28, 1.72, 7.57, repro,
2008-03-22,-4.26, 4.51, -13.47, 2.17, 1.61, 7.10, repro,
2008-03-23,-2.93, 0.87, -17.78, 2.28, 1.71, 7.42, repro,
2008-03-24,-1.02, 1.40, -15.91, 2.18, 1.61, 7.09, repro,
2008-03-25,-2.35, -0.05, -13.89, 2.30, 1.77, 7.58, repro,
2008-03-26,-2.45, 0.23, -13.65, 2.29, 1.77, 7.61, repro,
2008-03-27,-2.05, 0.10, -16.81, 2.31, 1.74, 7.62, repro,
2008-03-28,-2.09, -0.47, -15.85, 2.19, 1.60, 7.05, repro,
2008-03-29,-1.04, -0.43, -8.29, 2.17, 1.59, 7.04, repro,
2008-03-30,-0.91, -0.54, -15.40, 2.19, 1.62, 7.09, repro,
2008-03-31,-1.79, -0.83, -17.51, 2.20, 1.64, 7.18, repro,
2008-04-01,-4.15, -0.15, -17.98, 2.17, 1.56, 6.93, repro,
2008-04-02,-2.21, -0.62, -19.38, 2.24, 1.58, 7.09, repro,
2008-04-03,-2.62, -0.41, -15.82, 2.18, 1.57, 6.97, repro,
2008-04-04,-2.10, -0.62, -16.38, 2.16, 1.56, 6.91, repro,
2008-04-05,-2.79, -0.63, -3.78, 2.26, 1.69, 7.24, repro,
2008-04-06,-2.49, -0.64, -11.98, 2.21, 1.61, 7.18, repro,
2008-04-07,-2.25, 0.04, -13.04, 2.17, 1.57, 6.96, repro,
2008-04-08,-1.80, -0.23, -14.65, 2.18, 1.56, 6.96, repro,
2008-04-09,-2.50, 0.05, -12.92, 2.17, 1.56, 6.92, repro,
2008-04-10,-2.68, -0.26, -11.83, 2.16, 1.55, 6.88, repro,
2008-04-11,-2.15, -0.36, -17.66, 2.17, 1.56, 6.93, repro,
2008-04-12,-3.09, -1.16, -21.64, 2.18, 1.56, 6.96, repro,
2008-04-13,-3.42, -0.43, -17.61, 2.21, 1.61, 7.14, repro,
2008-04-14,-2.77, 0.18, -17.27, 2.22, 1.61, 7.09, repro,
2008-04-15,-1.36, -0.28, -7.72, 2.21, 1.62, 7.11, repro,
2008-04-16,-2.74, -0.87, -11.23, 2.21, 1.62, 7.10, repro,
2008-04-17,-3.40, -0.54, -14.46, 2.22, 1.61, 7.24, repro,
2008-04-18,-2.27, -0.22, -18.47, 2.25, 1.64, 7.16, repro,
2008-04-19,-0.15, 0.93, -15.32, 2.19, 1.56, 6.97, repro,
2008-04-20,-1.50, -0.61, -16.59, 2.65, 2.00, 8.91, repro,
2008-04-21,-2.56, -1.28, -16.61, 2.16, 1.55, 6.89, repro,
2008-04-22,-0.75, 1.30, -16.82, 2.19, 1.56, 6.99, repro,
2008-04-23,-2.17, -0.01, -17.17, 2.27, 1.63, 7.32, repro,
2008-04-24,-1.38, -0.22, -19.38, 2.22, 1.58, 7.10, repro,
2008-04-25,-2.63, -1.26, -17.12, 2.19, 1.56, 6.97, repro,
2008-04-26,-3.81, 0.17, -20.31, 2.33, 1.69, 7.42, repro,
2008-04-27,-2.93, 0.59, -19.56, 2.28, 1.59, 7.12, repro,
2008-04-28,-2.58, -1.13, -20.42, 2.30, 1.60, 7.16, repro,
2008-04-29,-0.77, 0.54, -15.74, 2.37, 1.63, 7.37, repro,
2008-04-30,-1.66, -1.46, -13.98, 2.25, 1.60, 7.15, repro,
2008-05-01,-2.63, -0.65, -16.04, 2.23, 1.59, 7.08, repro,
2008-05-02,-2.69, -0.72, -13.54, 2.29, 1.67, 7.25, repro,
2008-05-03,-2.33, -0.14, -16.84, 2.20, 1.57, 7.05, repro,
2008-05-04,-2.49, -0.67, -14.22, 2.24, 1.61, 7.26, repro,
2008-05-05,-2.53, -1.19, -16.40, 2.31, 1.66, 7.29, repro,
2008-05-06,-2.41, -0.91, -13.43, 2.25, 1.59, 7.11, repro,
2008-05-07,-2.47, -0.53, -13.87, 2.20, 1.56, 6.97, repro,
2008-05-08,-3.54, -1.10, -20.35, 2.24, 1.62, 7.13, repro,
2008-05-09,-2.70, -1.55, -15.04, 2.21, 1.57, 7.03, repro,
2008-05-10,-2.47, -0.34, -22.50, 2.25, 1.60, 7.18, repro,
2008-05-11,-2.63, -0.87, -12.55, 2.22, 1.56, 7.00, repro,
2008-05-12,-2.43, -1.16, -10.26, 2.25, 1.60, 7.10, repro,
2008-05-13,-3.15, -0.50, -17.90, 2.26, 1.64, 7.15, repro,
2008-05-14,-3.07, -1.27, -16.27, 2.21, 1.57, 7.03, repro,
2008-05-15,-4.82, -0.87, -17.42, 2.21, 1.57, 7.01, repro,
2008-05-16,-2.99, -1.57, -24.39, 2.21, 1.56, 7.00, repro,
2008-05-17,-3.11, -0.71, -20.31, 2.22, 1.56, 7.01, repro,
2008-05-18,-3.58, -0.99, -24.39, 2.26, 1.61, 7.20, repro,
2008-05-19,-0.64, -1.79, -16.42, 2.22, 1.58, 7.09, repro,
2008-05-20,-3.75, -0.94, -7.54, 2.20, 1.57, 7.09, repro,
2008-05-21,-3.08, -0.36, -8.48, 2.23, 1.62, 7.19, repro,
2008-05-22,-2.11, -1.18, -5.81, 2.29, 1.69, 7.46, repro,
2008-05-23,-1.63, -0.95, -11.63, 2.22, 1.60, 7.20, repro,
2008-05-24,-2.73, -1.64, -20.41, 2.18, 1.56, 6.97, repro,
2008-05-25,-3.40, -1.24, -14.90, 2.18, 1.56, 7.03, repro,
2008-05-26,-3.24, -0.36, -11.02, 2.21, 1.61, 7.15, repro,
2008-05-27,-2.73, -0.35, -18.19, 2.19, 1.56, 7.04, repro,
2008-05-28,-1.74, -0.26, -21.87, 2.19, 1.55, 6.96, repro,
2008-05-29,-3.03, -0.86, -20.90, 2.24, 1.61, 7.15, repro,
2008-05-30,-3.66, 0.45, -11.97, 2.19, 1.57, 7.06, repro,
2008-05-31,-2.66, 0.44, -18.76, 2.24, 1.59, 7.17, repro,
2008-06-01,-3.20, -0.56, -17.14, 2.19, 1.58, 7.07, repro,
2008-06-02,-3.08, -0.23, -21.08, 2.24, 1.63, 7.17, repro,
2008-06-03,-2.95, -0.81, -14.43, 2.26, 1.61, 7.24, repro,
2008-06-04,-3.65, 0.60, -11.27, 2.24, 1.66, 7.36, repro,
2008-06-05,-3.96, -0.69, -12.10, 2.18, 1.57, 7.03, repro,
2008-06-06,-4.03, 0.53, -13.28, 2.22, 1.62, 7.21, repro,
2008-06-07,-4.70, -1.49, -7.50, 2.28, 1.71, 7.43, repro,
2008-06-08,-3.63, 0.74, -20.63, 2.23, 1.61, 7.07, repro,
2008-06-09,-3.48, 0.47, -17.81, 2.23, 1.63, 7.16, repro,
2008-06-10,-4.34, 1.69, -12.45, 2.22, 1.58, 7.09, repro,
2008-06-11,-4.28, -0.25, -14.41, 2.19, 1.58, 7.03, repro,
2008-06-12,-4.24, 1.21, -16.98, 2.25, 1.65, 7.25, repro,
2008-06-13,-4.67, 0.13, -24.32, 2.18, 1.57, 7.00, repro,
2008-06-14,-2.72, 2.14, -22.25, 2.26, 1.62, 7.21, repro,
2008-06-15,-3.47, 1.41, -15.39, 2.27, 1.62, 7.23, repro,
2008-06-16,-3.26, 0.89, -14.11, 2.20, 1.58, 7.07, repro,
2008-06-17,-2.71, 1.02, -16.92, 2.20, 1.59, 7.10, repro,
2008-06-18,-2.87, 0.65, -24.09, 2.25, 1.65, 7.27, repro,
2008-06-19,-2.10, 0.06, -19.37, 2.24, 1.63, 7.29, repro,
2008-06-20,-4.19, 0.77, -23.86, 2.20, 1.58, 7.06, repro,
2008-06-21,-1.46, -0.29, -22.29, 2.21, 1.59, 7.11, repro,
2008-06-22,-3.12, 0.46, -19.43, 2.23, 1.61, 7.18, repro,
2008-06-23,-3.29, 0.85, -15.86, 2.19, 1.58, 7.02, repro,
2008-06-24,-3.91, 0.82, -13.90, 2.22, 1.58, 7.05, repro,
2008-06-25,-3.19, 2.15, -17.26, 2.19, 1.58, 7.03, repro,
2008-06-26,-2.62, 1.50, -5.98, 2.22, 1.61, 7.14, repro,
2008-06-27,-4.10, 0.71, -13.29, 2.19, 1.58, 7.01, repro,
2008-06-28,-3.00, -0.82, -15.90, 2.24, 1.63, 7.13, repro,
2008-06-29,-3.96, -0.48, -15.04, 2.24, 1.63, 7.18, repro,
2008-06-30,-2.65, 0.56, -20.74, 2.20, 1.58, 7.05, repro,
2008-07-01,-2.32, 1.24, -16.13, 2.20, 1.58, 7.04, repro,
2008-07-02,-1.35, 0.96, -13.68, 2.18, 1.57, 6.95, repro,
2008-07-03,-2.46, 0.19, -15.59, 2.19, 1.57, 6.99, repro,
2008-07-04,-2.88, 2.62, -7.61, 2.18, 1.56, 6.97, repro,
2008-07-05,-3.68, 2.17, -10.44, 2.21, 1.59, 7.09, repro,
2008-07-06,-4.74, -0.50, -1.55, 2.22, 1.58, 7.13, repro,
2008-07-07,-0.79, 1.02, -16.23, 2.22, 1.61, 7.19, repro,
2008-07-08,0.20, 0.46, -8.56, 2.17, 1.55, 6.90, repro,
2008-07-09,-2.13, 2.13, -12.12, 2.19, 1.58, 7.00, repro,
2008-07-10,-1.00, 2.55, -6.41, 2.26, 1.61, 7.24, repro,
2008-07-11,-1.11, 1.26, -13.41, 2.29, 1.62, 7.27, repro,
2008-07-12,-2.20, 0.73, -12.37, 2.19, 1.56, 6.96, repro,
2008-07-13,-0.85, 0.09, -10.71, 2.21, 1.61, 7.17, repro,
2008-07-14,-0.98, 1.36, -9.46, 2.17, 1.56, 6.95, repro,
2008-07-15,-2.27, 2.26, -14.02, 2.23, 1.63, 7.18, repro,
2008-07-16,-1.25, -0.02, -14.25, 2.20, 1.58, 7.15, repro,
2008-07-17,-0.31, 1.07, -7.06, 2.22, 1.58, 7.14, repro,
2008-07-18,-0.68, 2.54, -4.32, 2.42, 1.69, 7.70, repro,
2008-07-24,-2.56, 0.58, -6.12, 2.21, 1.59, 7.07, repro,
2008-07-25,-0.94, 1.96, -2.57, 2.15, 1.55, 6.91, repro,
2008-07-26,0.29, 1.25, -6.41, 2.18, 1.57, 7.03, repro,
2008-07-27,-1.74, 1.28, 2.68, 2.21, 1.57, 7.09, repro,
2008-07-28,-2.58, 0.10, 3.43, 2.29, 1.59, 7.25, repro,
2008-07-29,-0.57, 0.24, 2.80, 2.22, 1.57, 7.06, repro,
2008-07-30,0.42, 1.07, 1.75, 2.30, 1.68, 7.48, repro,
2008-07-31,-2.55, 0.19, 6.52, 2.16, 1.55, 6.95, repro,
2008-08-01,-1.43, 0.84, -0.50, 2.19, 1.56, 7.05, repro,
2008-08-02,-1.67, 0.34, 1.05, 2.20, 1.57, 7.06, repro,
2008-08-03,-1.98, 2.13, 0.11, 2.21, 1.57, 7.09, repro,
2008-08-04,-1.89, 0.10, 2.20, 2.15, 1.54, 6.91, repro,
2008-08-05,-0.77, 0.74, -3.46, 2.15, 1.55, 6.93, repro,
2008-08-06,-2.34, 1.00, 0.90, 2.22, 1.58, 7.09, repro,
2008-08-07,-2.02, 1.95, 0.82, 2.27, 1.63, 7.26, repro,
2008-08-08,-3.07, -0.46, 2.37, 2.27, 1.63, 7.25, repro,
2008-08-09,-3.11, 1.21, 0.45, 2.20, 1.56, 6.96, repro,
2008-08-10,-0.33, -0.11, 0.05, 2.23, 1.60, 7.21, repro,
2008-08-11,-1.10, -0.16, 2.31, 2.23, 1.57, 7.08, repro,
2008-08-12,-0.14, -1.14, -1.41, 2.25, 1.58, 7.09, repro,
2008-08-13,-0.36, -0.86, -1.01, 2.24, 1.58, 7.13, repro,
2008-08-14,-2.52, 0.03, -4.34, 2.23, 1.61, 7.17, repro,
2008-08-15,-2.04, 0.60, 2.13, 2.20, 1.57, 6.97, repro,
2008-08-16,-1.59, 1.50, -1.35, 2.22, 1.58, 7.09, repro,
2008-08-17,-1.67, 0.13, 5.37, 2.26, 1.59, 7.15, repro,
2008-08-18,-2.20, 1.02, 0.64, 2.26, 1.59, 7.13, repro,
2008-08-19,-2.42, 0.93, 5.56, 2.22, 1.57, 6.99, repro,
2008-08-20,-3.01, 0.02, 6.08, 2.21, 1.57, 7.00, repro,
2008-08-21,0.66, 3.11, 8.98, 2.21, 1.57, 7.01, repro,
2008-08-22,-0.65, 0.33, 0.44, 2.26, 1.57, 7.11, repro,
2008-08-23,-1.53, 0.57, -2.54, 2.24, 1.57, 7.08, repro,
2008-08-24,-3.03, -0.05, -1.70, 2.24, 1.59, 7.13, repro,
2008-08-25,-2.48, 1.51, 5.16, 2.21, 1.57, 7.01, repro,
2008-08-26,2.03, -0.21, 11.59, 2.29, 1.66, 7.30, repro,
2008-08-27,-2.70, -1.33, 8.01, 2.25, 1.60, 7.18, repro,
2008-08-28,1.10, -0.85, 6.99, 2.35, 1.63, 7.39, repro,
2008-08-29,-1.24, 0.06, -4.48, 2.25, 1.59, 7.11, repro,
2008-08-30,-0.10, 2.70, -1.12, 2.23, 1.59, 7.09, repro,
2008-08-31,0.96, 1.25, 3.27, 2.23, 1.60, 7.14, repro,
2008-09-01,-0.29, 1.42, 2.29, 2.24, 1.58, 7.13, repro,
2008-09-02,-0.86, 1.01, 0.97, 2.26, 1.60, 7.22, repro,
2008-09-03,0.23, 0.85, -1.03, 2.30, 1.66, 7.30, repro,
2008-09-04,-0.86, 0.43, -0.08, 2.44, 1.72, 7.83, repro,
2008-09-05,1.56, 0.65, 2.73, 2.24, 1.59, 7.13, repro,
2008-09-06,0.19, 0.38, -1.64, 2.23, 1.58, 7.08, repro,
2008-09-07,-0.87, 1.83, -1.79, 2.25, 1.59, 7.19, repro,
2008-09-08,-0.37, 1.26, -2.79, 2.27, 1.62, 7.25, repro,
2008-09-09,-1.47, 1.28, -2.15, 2.28, 1.60, 7.16, repro,
2008-09-10,-0.15, 1.46, 1.36, 2.27, 1.63, 7.25, repro,
2008-09-11,0.54, 0.56, -0.53, 2.33, 1.68, 7.43, repro,
2008-09-12,1.21, 0.53, 4.52, 2.31, 1.63, 7.42, repro,
2008-09-13,-0.17, 1.58, -0.17, 2.23, 1.60, 7.14, repro,
2008-09-14,-0.28, 0.22, -4.63, 2.28, 1.65, 7.28, repro,
2008-09-15,-1.58, 1.04, -0.06, 2.24, 1.59, 7.08, repro,
2008-09-16,-0.14, 0.23, -3.81, 2.23, 1.60, 7.12, repro,
2008-09-17,0.19, -0.12, 0.18, 2.41, 1.68, 7.46, repro,
2008-09-18,-0.85, 0.06, -2.42, 2.24, 1.57, 7.09, repro,
2008-09-19,-0.45, 0.61, -0.93, 2.20, 1.56, 6.99, repro,
2008-09-20,-0.56, -0.63, -2.93, 2.23, 1.57, 7.07, repro,
2008-09-21,-0.52, -0.01, -3.21, 2.20, 1.55, 6.90, repro,
2008-09-22,0.03, 0.37, -1.97, 2.21, 1.56, 6.97, repro,
2008-09-23,0.34, 0.76, -1.81, 2.23, 1.57, 7.05, repro,
2008-09-24,0.11, 0.58, -0.01, 2.25, 1.60, 7.16, repro,